CDT,Max TemperatureF,Mean TemperatureF,Min TemperatureF,Max Dew PointF,MeanDew PointF,Min DewpointF,Max Humidity, Mean Humidity, Min Humidity, Max Sea Level PressureIn, Mean Sea Level PressureIn, Min Sea Level PressureIn, Max VisibilityMiles, Mean VisibilityMiles, Min VisibilityMiles, Max Wind SpeedMPH, Mean Wind SpeedMPH, Max Gust SpeedMPH,PrecipitationIn, CloudCover, Events, WindDirDegrees
2012-7-1,93,83,75,73,67,63,79,61,40,30.01,29.91,29.84,10,10,10,13,6,,0.00,1,Rain-Thunderstorm,184
2012-7-2,100,86,73,70,66,63,84,58,31,29.98,29.94,29.89,10,10,7,21,5,30,0.02,2,Rain-Thunderstorm,201
2012-7-3,99,84,71,70,67,65,84,57,35,29.95,29.89,29.82,10,10,10,12,8,23,0.00,0,,210
2012-7-4,100,88,75,69,63,56,74,45,23,29.93,29.89,29.85,10,10,10,12,6,21,0.00,0,,216
2012-7-5,102,90,77,68,63,59,58,41,26,29.97,29.93,29.90,10,10,10,13,6,,0.00,0,,241
2012-7-6,105,91,78,72,67,61,78,50,24,30.01,29.96,29.90,10,9,2,32,6,47,0.42,3,Rain-Thunderstorm,174
2012-7-7,105,92,79,72,67,60,77,47,24,29.98,29.94,29.89,10,10,10,13,5,16,0.00,0,,327
2012-7-8,93,82,73,70,66,61,82,61,45,30.03,29.99,29.94,10,10,10,17,7,21,0.00,1,,40
2012-7-9,93,78,64,61,57,52,81,48,26,30.07,30.02,29.97,10,10,10,12,5,18,0.00,1,,52
2012-7-10,91,78,66,67,62,57,84,55,36,30.04,30.02,29.99,10,10,10,16,4,22,0.03,3,Rain-Thunderstorm,59
2012-7-11,91,80,69,60,55,52,58,44,30,30.09,30.05,30.01,10,10,10,13,8,,0.00,2,,79
2012-7-12,95,80,64,62,57,54,70,46,28,30.04,30.00,29.96,10,10,10,12,5,,0.00,0,,93
2012-7-13,93,81,69,68,64,60,93,67,33,30.07,30.01,29.96,10,9,5,18,6,23,0.15,3,Rain-Thunderstorm,193
2012-7-14,93,78,66,69,66,64,100,69,43,30.07,30.02,29.96,10,8,2,7,3,,0.01,1,,81
2012-7-15,96,82,70,69,66,62,90,59,35,30.08,30.02,29.96,10,10,9,10,6,,0.00,0,,188
2012-7-16,97,85,73,70,68,65,82,57,36,30.00,29.93,29.83,10,10,10,9,6,,0.00,1,,191
2012-7-17,100,87,75,69,66,62,76,50,30,29.90,29.86,29.81,10,10,10,14,6,22,0.00,1,,218
2012-7-18,104,88,75,67,65,62,74,45,26,29.91,29.86,29.80,10,10,10,14,7,20,0.00,1,,214
2012-7-19,98,86,75,72,68,64,84,61,33,29.97,29.88,29.82,10,9,2,15,9,47,0.38,3,Rain-Thunderstorm,269
2012-7-20,84,75,66,68,64,63,94,72,49,30.10,30.04,29.97,10,9,6,15,8,22,0.00,5,,27
2012-7-21,93,78,64,64,60,55,90,56,30,30.11,30.06,30.01,10,10,8,9,4,,0.00,0,,113
2012-7-22,98,86,73,63,60,56,68,44,25,30.12,30.03,29.98,10,10,10,15,6,23,0.00,0,,172
2012-7-23,105,90,75,66,63,58,62,42,22,30.03,29.97,29.91,10,10,10,14,7,21,0.00,0,,214
2012-7-24,104,88,75,72,66,63,69,48,29,29.96,29.90,29.82,10,10,10,10,7,20,0.00,0,,191
2012-7-25,105,90,77,73,66,61,84,47,26,29.83,29.75,29.63,10,10,9,23,9,30,0.00,0,,202
2012-7-26,91,81,72,72,69,63,94,73,44,29.85,29.78,29.65,10,9,2,24,10,37,0.25,3,Rain-Thunderstorm,259
2012-7-27,90,78,66,66,61,56,93,61,33,30.02,29.92,29.83,10,10,9,16,7,23,0.00,0,,337
2012-7-28,88,74,62,63,60,55,88,61,33,30.14,30.09,30.03,10,10,10,13,3,16,0.00,0,,47
2012-7-29,90,78,68,69,66,62,93,70,48,30.11,29.99,29.89,10,9,3,14,6,18,0.16,2,Rain-Thunderstorm,158
2012-7-30,89,79,70,72,69,67,93,76,49,29.93,29.90,29.86,10,9,5,12,5,,0.00,1,,179
2012-7-31,100,82,66,72,67,59,100,77,35,29.97,29.91,29.86,10,5,0,15,3,20,0.00,0,Fog,290